This is the latest recevied weather packets stored in our database for station/object W1RCY. If no packets are shown the sender has not sent any weather packets the latest 10 day(s).
| Time | Temp. | Humidity | Pressure | Rain* | Wind** | Luminosity | Snow |
|---|---|---|---|---|---|---|---|
| 1777903295 | 14.44° C | 53% | 1006.3 hPa | 0 mm | - | 243 W/m² | - |
| 1777902992 | 13.89° C | 52% | 1006.2 hPa | 0 mm | - | 251 W/m² | - |
| 1777902688 | 13.33° C | 54% | 1006.2 hPa | 0 mm | - | 278 W/m² | - |
| 1777902386 | 13.33° C | 54% | 1006.6 hPa | 0 mm | - | 173 W/m² | - |
| 1777902082 | 13.33° C | 55% | 1006.4 hPa | 0 mm | - | 207 W/m² | - |
| 1777901781 | 13.33° C | 55% | 1006.5 hPa | 0 mm | - | 281 W/m² | - |
| 1777901477 | 12.78° C | 57% | 1006.6 hPa | 0 mm | - | 203 W/m² | - |
| 1777901175 | 12.78° C | 57% | 1006.5 hPa | 0 mm | - | 180 W/m² | - |
| 1777900873 | 12.22° C | 57% | 1006.7 hPa | 0 mm | - | 181 W/m² | - |
| 1777900570 | 12.22° C | 58% | 1006.7 hPa | 0 mm | - | 204 W/m² | - |
| 1777900267 | 11.67° C | 60% | 1007 hPa | 0 mm | - | 204 W/m² | - |
| 1777899963 | 11.11° C | 63% | 1007 hPa | 0 mm | - | 329 W/m² | - |
| 1777899660 | 11.11° C | 63% | 1007 hPa | 0 mm | - | 131 W/m² | - |
| 1777899358 | 11.11° C | 62% | 1007 hPa | 0 mm | - | 242 W/m² | - |
| 1777899055 | 10.56° C | 64% | 1006.9 hPa | 0 mm | - | 114 W/m² | - |
| 1777898751 | 10.56° C | 65% | 1007.2 hPa | 0 mm | - | 172 W/m² | - |
| 1777898450 | 10° C | 65% | 1007.1 hPa | 0 mm | - | 111 W/m² | - |
| 1777898147 | 10° C | 65% | 1007.3 hPa | 0 mm | - | 108 W/m² | - |
| 1777897844 | 10° C | 65% | 1007.3 hPa | 0 mm | - | 109 W/m² | - |
| 1777897540 | 9.44° C | 65% | 1007.4 hPa | 0 mm | - | 209 W/m² | - |
| 1777897235 | 9.44° C | 66% | 1007.3 hPa | 0 mm | - | 126 W/m² | - |
| 1777896932 | 8.89° C | 67% | 1007.5 hPa | 0 mm | - | 122 W/m² | - |
| 1777896629 | 8.89° C | 67% | 1007.5 hPa | 0 mm | - | 179 W/m² | - |
| 1777896326 | 8.89° C | 68% | 1007.5 hPa | 0 mm | - | 157 W/m² | - |
| 1777896024 | 8.33° C | 70% | 1007.8 hPa | 0 mm | - | 121 W/m² | - |
* Rain latest hour (hover to see other rain measurements)
** Current wind speed in m/s (hover to see current wind gust speed)